Location: Unspecified
(0.0000°N, 0.0000°E)
Time: 09:47:03
(UTC+02:00)

SWIFT - Visible Passes

Search period start: 25 October 2014 00:00
Search period end: 03 November 2014 23:00
Orbit: 559 x 576 km, 20.6° (Epoch: 24 October)

Date Brightness Start Highest point End Pass type
(mag) Time Alt. Az. Time Alt. Az. Time Alt. Az.
28 Oct 4.8 20:26:54 10° SSW 20:28:28 13° S 20:28:28 13° S visible
29 Oct 4.4 20:24:59 10° SSW 20:27:21 18° S 20:27:21 18° S visible
30 Oct 4.0 20:23:17 10° SW 20:26:15 24° S 20:26:15 24° S visible
31 Oct 3.5 20:21:43 10° SW 20:25:09 34° S 20:25:09 34° S visible
01 Nov 2.8 20:20:16 10° SW 20:24:04 51° S 20:24:04 51° S visible
02 Nov 2.3 20:18:55 10° WSW 20:22:58 76° SSW 20:22:58 76° SSW visible
03 Nov 2.4 20:17:41 10° WSW 20:21:53 67° NNW 20:21:53 67° NNW visible
